THURAYA-3

Last updated on Jan. 29, 2020, 4:37 a.m. UTC

1 32404U 08001A   20028.80614553 -.00000302  00000-0  00000+0 0  9991
2 32404   3.7690   7.4525 0004658 293.6156 215.1485  1.00270805 44151
UTC
Height (km)
Latitude
Longitude
Inclination
Orbital Period
UTC large
Height (km)
Speed (km/s)
/
Latitude / Longitude
Inclination (degrees)
Orbital Period (minutes)
Azimuth
Elevation
Range (km)
Doppler Factor
iOS Compass Heading
iOS Angle

Next 30 passes for location: Hong Kong

Rise time Rise Azimuth (degrees) Set time Set Azimuth (degrees) Duration Max altitude (degrees)

No matching passes for this satellites